Weather History for Miami, FL

Change the Weather History Date:

Friday, February 1, 2013

  Actual Average Record
Temperature  
Mean Temperature 65 °F 69 °F  
Max Temperature 75 °F 77 °F 84 °F (1989)
Min Temperature 55 °F 61 °F 36 °F (1909)
Degree Days  
Heating Degree Days 0 1  
Month to date heating degree days 0 1  
Since 1 July heating degree days 20 91  
Cooling Degree Days 0 5  
Month to date cooling degree days 0 5  
Year to date cooling degree days 269 156  
Growing Degree Days 15 (Base 50)    
Moisture  
Dew Point 46 °F    
Average Humidity 54    
Maximum Humidity 67    
Minimum Humidity 41    
Precipitation  
Precipitation 0.00 in 0.07 in 2.90 in (2010)
Month to date precipitation 0.00 0.07  
Year to date precipitation 0.54 1.69  
Snow  
Snow 0.00 in - - ()
Month to date snowfall 0.0  
Since 1 July snowfall 0.0  
Snow Depth 0.00 in    
Sea Level Pressure  
Sea Level Pressure 30.22 in    
Wind  
Wind Speed 8 mph (North)    
Max Wind Speed 17 mph    
Max Gust Speed 24 mph    
Visibility 10 miles    
Events      
T = Trace of Precipitation, MM = Missing Value Source: NWS Daily Summary

Daily Weather History Graph

Daily Weather History Graph

Search for Another Location

Airport:

Trip Planner

Search our weather history database for the weather conditions in past years. The results will help you decide how hot, cold, wet, or windy it might be!

Date:

Astronomy

Feb. 01, 2013 Rise Set
Actual Time 7:04 AM EST 6:05 PM EST
Civil Twilight 6:40 AM EST 6:29 PM EST
Nautical Twilight 6:13 AM EST 6:56 PM EST
Astronomical Twilight 5:46 AM EST 7:24 PM EST
Moon 11:27 PM EST (2/1) 10:16 AM EST (2/1)
Length of Visible Light 11h 48m
Length of Day
11h 00m
Waning Gibbous, 70% of the Moon is Illuminated
Feb 1
Waning Gibbous
Feb 3
Last Quarter
Feb 10
New
Feb 17
First Quarter
Feb 25
Full

Hourly Weather History & Observations

Time (EST) Temp. Dew Point Humidity Pressure Visibility Wind Dir Wind Speed Gust Speed Precip Events Conditions
12:53 AM 62.1 °F 39.0 °F 43% 30.18 in 10.0 mi NNW 6.9 mph - N/A   Mostly Cloudy
1:53 AM 60.1 °F 39.9 °F 47% 30.18 in 10.0 mi NNW 8.1 mph - N/A   Scattered Clouds
2:53 AM 59.0 °F 37.9 °F 46% 30.17 in 10.0 mi NNW 6.9 mph - N/A   Partly Cloudy
3:53 AM 57.9 °F 37.9 °F 47% 30.17 in 10.0 mi NNW 8.1 mph - N/A   Clear
4:53 AM 55.9 °F 37.0 °F 49% 30.17 in 10.0 mi NNW 6.9 mph - N/A   Partly Cloudy
5:20 AM 55.4 °F 37.4 °F 51% 30.18 in 10.0 mi NNW 8.1 mph - N/A   Scattered Clouds
5:53 AM 55.9 °F 37.9 °F 51% 30.19 in 10.0 mi NNW 6.9 mph - N/A   Clear
6:53 AM 55.0 °F 39.0 °F 55% 30.21 in 10.0 mi Variable 6.9 mph 17.3 mph N/A   Clear
7:53 AM 57.0 °F 41.0 °F 55% 30.23 in 10.0 mi North 8.1 mph - N/A   Scattered Clouds
8:53 AM 61.0 °F 44.1 °F 54% 30.25 in 10.0 mi NNW 8.1 mph - N/A   Partly Cloudy
9:53 AM 64.0 °F 46.0 °F 52% 30.27 in 10.0 mi North 9.2 mph 18.4 mph N/A   Partly Cloudy
10:53 AM 70.0 °F 48.9 °F 47% 30.27 in 10.0 mi North 6.9 mph - N/A   Scattered Clouds
11:53 AM 73.0 °F 50.0 °F 44% 30.25 in 10.0 mi NNE 8.1 mph - N/A   Scattered Clouds
12:53 PM 73.9 °F 48.9 °F 41% 30.24 in 10.0 mi NE 11.5 mph 18.4 mph N/A   Scattered Clouds
1:53 PM 73.0 °F 48.9 °F 42% 30.22 in 10.0 mi NE 12.7 mph 17.3 mph N/A   Scattered Clouds
2:53 PM 73.9 °F 48.9 °F 41% 30.21 in 10.0 mi NNE 12.7 mph 19.6 mph N/A   Mostly Cloudy
3:53 PM 72.0 °F 51.1 °F 48% 30.21 in 10.0 mi NE 9.2 mph 17.3 mph N/A   Mostly Cloudy
4:53 PM 71.1 °F 51.1 °F 49% 30.21 in 10.0 mi NE 9.2 mph 17.3 mph N/A   Scattered Clouds
5:53 PM 70.0 °F 53.1 °F 55% 30.22 in 10.0 mi NE 11.5 mph 18.4 mph N/A   Scattered Clouds
6:53 PM 69.1 °F 50.0 °F 51% 30.23 in 10.0 mi NE 9.2 mph - N/A   Mostly Cloudy
7:53 PM 68.0 °F 51.1 °F 55% 30.24 in 10.0 mi NE 8.1 mph - N/A   Scattered Clouds
8:53 PM 66.0 °F 53.1 °F 63% 30.24 in 10.0 mi North 6.9 mph - N/A   Mostly Cloudy
9:53 PM 64.0 °F 52.0 °F 65% 30.25 in 10.0 mi North 6.9 mph - N/A   Scattered Clouds
10:53 PM 63.0 °F 52.0 °F 67% 30.25 in 10.0 mi North 4.6 mph - N/A   Scattered Clouds
11:53 PM 62.1 °F 51.1 °F 67% 30.25 in 10.0 mi NNW 3.5 mph - N/A   Scattered Clouds